This is the latest recevied weather packets stored in our database for station/object KD4UFD. If no packets are shown the sender has not sent any weather packets the latest 10 day(s).
| Time | Temp. | Humidity | Pressure | Rain* | Wind** | Luminosity | Snow |
|---|---|---|---|---|---|---|---|
| 1778078115 | 17.22° C | 99% | 1012.9 hPa | 3.56 mm | - | 101 W/m² | - |
| 1778077813 | 17.22° C | 99% | 1013.2 hPa | 3.05 mm | - | 73 W/m² | - |
| 1778077510 | 17.22° C | 99% | 1012.7 hPa | 3.05 mm | - | 59 W/m² | - |
| 1778077208 | 17.22° C | 99% | 1012.1 hPa | 3.05 mm | - | 43 W/m² | - |
| 1778076905 | 17.22° C | 99% | 1012.1 hPa | 4.32 mm | - | 39 W/m² | - |
| 1778076604 | 17.22° C | 99% | 1012.2 hPa | 4.32 mm | - | 38 W/m² | - |
| 1778076301 | 17.22° C | 99% | 1012.3 hPa | 3.05 mm | - | 38 W/m² | - |
| 1778075998 | 17.22° C | 99% | 1012.2 hPa | 1.78 mm | - | 46 W/m² | - |
| 1778075695 | 17.22° C | 99% | 1012.1 hPa | 3.05 mm | - | 52 W/m² | - |
| 1778075391 | 17.22° C | 99% | 1012.1 hPa | 4.83 mm | - | 52 W/m² | - |
| 1778075087 | 17.22° C | 98% | 1011.8 hPa | 3.56 mm | - | 54 W/m² | - |
| 1778074784 | 17.22° C | 98% | 1011.7 hPa | 3.05 mm | - | 48 W/m² | - |
| 1778074481 | 17.22° C | 98% | 1011.8 hPa | 1.27 mm | - | 47 W/m² | - |
| 1778074178 | 17.22° C | 98% | 1011.6 hPa | 0 mm | - | 53 W/m² | - |
| 1778073875 | 17.22° C | 98% | 1011.7 hPa | 1.78 mm | - | 38 W/m² | - |
| 1778073572 | 17.22° C | 98% | 1011.6 hPa | 1.78 mm | - | 42 W/m² | - |
| 1778073269 | 17.22° C | 98% | 1011.4 hPa | 0 mm | - | 43 W/m² | - |
| 1778072966 | 17.22° C | 98% | 1011.8 hPa | 1.27 mm | - | 51 W/m² | - |
| 1778072662 | 17.22° C | 97% | 1011.7 hPa | 4.32 mm | - | 44 W/m² | - |
| 1778072360 | 17.22° C | 97% | 1012 hPa | 7.87 mm | - | 26 W/m² | - |
| 1778072058 | 17.22° C | 97% | 1011.8 hPa | 8.89 mm | - | 13 W/m² | - |
| 1778071756 | 17.22° C | 97% | 1012 hPa | 7.87 mm | - | 11 W/m² | - |
| 1778071453 | 17.22° C | 96% | 1011.9 hPa | 3.56 mm | - | 10 W/m² | - |
| 1778071151 | 17.22° C | 96% | 1011.9 hPa | 3.05 mm | - | 16 W/m² | - |
| 1778070849 | 17.22° C | 96% | 1011.2 hPa | 1.27 mm | - | 15 W/m² | - |
* Rain latest hour (hover to see other rain measurements)
** Current wind speed in m/s (hover to see current wind gust speed)